Location: Norton
(51.3000°N, 0.8167°E)
Time: 18:04:07
(UTC+00:00)

FALCON 9 DEB - Pass Details

Date: 03 March 2021
Orbit: 371 x 390 km, 53.0° (Epoch: 12 April)

Event Time Altitude Azimuth Distance (km) Brightness Sun altitude
Rises 18:26:11 0° 269° (W) 2,296 9.5 -7.8°
Reaches altitude 10° 18:28:16 10° 273° (W) 1,440 7.5 -8.2°
Maximum altitude 18:31:28 63° 355° (N) 448 3.2 -8.7°
Enters shadow 18:34:18 13° 77° (ENE) 1,291 4.9 -9.1°
